Regional Weather Roundup
Issued by NWS

Home | Current Version | Previous Version | Graphics & Text | Print | Product List | Glossary Off
Versions: 1 2 3 4 5 6 7 8 9 10 11 12 13 14 15 16 17 18 19 20 21 22 23 24 25 26 27 28 29 30 31 32 33 34 35 36 37 38 39 40 41 42 43 44 45 46 47 48 49 50

000
ASUS43 KMKX 010321
RWRWI

WISCONSIN REGIONAL WEATHER ROUNDUP
NATIONAL WEATHER SERVICE MILWAUKEE/SULLIVAN WI
1000 PM CDT TUE MAY 31 2016

NOTE: "FAIR" INDICATES FEW OR NO CLOUDS BELOW 12,000 FEET WITH NO
SIGNIFICANT WEATHER AND/OR OBSTRUCTIONS TO VISIBILITY.

WIZ001-002-006>008-014>016-023>028-010400-
NORTHWEST WISCONSIN

CITY           SKY/WX    TMP DP  RH WIND       PRES   REMARKS
SUPERIOR ARPT  CLOUDY    42  41  95 NE8G16    29.91R
ASHLAND        CLOUDY    48  46  93 N5        29.88R
HAYWARD        CLOUDY    60  58  92 S5        29.88R
SIREN          CLOUDY    58  55  88 CALM      29.86R
CUMBERLAND     CLOUDY    61  59  94 SE7       29.88S
RICE LAKE      LGT RAIN  61  59  92 S8        29.90R
CHETEK         CLOUDY    61  61 100 SE6       29.89R
LADYSMITH      CLOUDY    61  60  96 CALM      29.90F
EAU CLAIRE     CLOUDY    63  62  97 SW3       29.88R
MENOMONIE      CLOUDY    63  63  99 SE5       29.89R
NEW RICHMOND   CLOUDY    63  62  96 S6        29.87S
OSCEOLA        CLOUDY    64  64 100 S6        29.89R
$$

WIZ003>005-009-010-017-018-010400-
NORTH CENTRAL WISCONSIN

CITY           SKY/WX    TMP DP  RH WIND       PRES   REMARKS
MANITOWISH WTR RAIN      59  59 100 SE5       29.93F
ARBOR VITAE    RAIN      60  58  92 SE6       29.93F
WOODRUFF       RAIN      60  58  92 SE6       29.93F
RHINELANDER    LGT RAIN  61  55  81 SE7       29.95S
EAGLE RIVER    CLOUDY    60  52  74 SE5       29.95S
LAND O LAKES   CLOUDY    60  53  75 SE10      29.96S
PHILLIPS       LGT RAIN  59  59 100 E7        29.90F
TOMAHAWK       LGT RAIN  59  57  94 SE3       29.93S
MEDFORD        RAIN      60  60 100 SE5       29.91S
MERRILL        LGT RAIN  63  63 100 SE7       29.94R
$$

WIZ029-030-035-036-043>047-010400-
CENTRAL WISCONSIN

CITY           SKY/WX    TMP DP  RH WIND       PRES   REMARKS
WAUSAU         HVY RAIN  64  61  90 SE9       29.92R FOG
MOSINEE        HVY RAIN  63  63 100 SE6       29.94R
MARSHFIELD     RAIN      62  59  90 S10       29.93R FOG
STEVENS POINT  RAIN      62  60  96 SE7       29.95R
WAUPACA        CLOUDY    67  62  85 E5        29.94S
WAUTOMA        CLOUDY   N/A N/A N/A SE7       29.93F
WISC RAPIDS    RAIN      62  59  90 S7        29.96R
CAMP DOUGLAS   LGT RAIN  62  62 100 SE5       29.93R
$$

WIZ011>013-019>022-031-037>040-048>050-010400-
NORTHEAST WISCONSIN

CITY           SKY/WX    TMP DP  RH WIND       PRES   REMARKS
ANTIGO         CLOUDY    59  55  88 SE10      29.96R
SHAWANO        CLOUDY    64  58  83 E5        29.96S
OCONTO         CLOUDY    57  57 100 E7        29.95F
STURGEON BAY   CLOUDY    61  48  63 CALM      29.98
GREEN BAY      CLOUDY    60  53  77 E5        29.96S
MANITOWOC      LGT RAIN  55  49  80 SE10      29.97F
APPLETON       CLOUDY    64  57  77 SE7       29.93S
CLINTONVILLE   CLOUDY    63  57  82 CALM      29.94S
OSHKOSH        CLOUDY    66  59  78 SE7       29.94R
$$

WIZ032>034-041-042-053>061-010400-
SOUTHWEST WISCONSIN

CITY           SKY/WX    TMP DP  RH WIND       PRES   REMARKS
LA CROSSE      CLOUDY    64  63  96 SE5       29.89S
SPARTA         LGT RAIN  62  62  98 SE3       29.92R
VIROQUA        CLOUDY    62  62 100 SE7       29.93R
BOSCOBEL       NOT AVBL
PRAIRIE DU CHI DRIZZLE   64  62  96 CALM      29.91S
PLATTEVILLE    CLOUDY    68  64  88 CALM      29.94R
$$

WIZ056-057-062-063-064-067-068-010400-
SOUTH CENTRAL WISCONSIN

CITY           SKY/WX    TMP DP  RH WIND       PRES   REMARKS
REEDSBURG      CLOUDY    66  62  86 W6        29.94R
BARABOO/DELLS  MOCLDY    65  59  79 W5        29.93R
LONE ROCK      TSTM      67  62  84 W9        29.96R
MINERAL POINT  LGT RAIN  64  63  94 W5        29.95R
MADISON        CLOUDY    67  60  78 S12       29.93S
MIDDLETON      CLOUDY    68  60  76 SE6       29.94R
WATERTOWN      CLOUDY    64  63  97 CALM      29.94S
MONROE         CLOUDY    64  61  88 SE10      29.94R
JANESVILLE     NOT AVBL
$$

WIZ051-052-058>065-066-070>072-010400-
SOUTHEAST WISCONSIN

CITY           SKY/WX    TMP DP  RH WIND       PRES   REMARKS
MILWAUKEE      MOCLDY    61  56  83 E6        29.96R
WAUKESHA       CLOUDY    63  59  88 CALM      29.97R
MILWAUKEE/TIMM PTCLDY    59  52  77 E5        29.97S
RACINE         CLOUDY    61  56  83 SE6       29.98R
BURLINGTON     MOCLDY    63  60  91 CALM      29.96R
KENOSHA        CLOUDY    64  60  87 E6        29.96R
FOND DU LAC    LGT RAIN  65  61  87 S8        29.94R
SHEBOYGAN      CLOUDY    56  50  80 SE5       29.97R
WEST BEND      CLOUDY    57  54  88 E3        29.96S
JUNEAU         CLOUDY    64  60  87 SE5       29.96R
$$

LSZ147-162-010400-
LAKE SUPERIOR

STATION/POSITION TIME  TEMP    WIND        PRES    WAVE
                       AIR SEA DIR/SP/G            HT/PER
                 (UTC) (F)     (DEG/KT/KT) (MB)    (FT/S)
W MID LAKE BUOY  0250   42 38   60/ 10/ 14 1013.3R   3/ 5
DEVILS ISLAND    0300   43      60/ 13/ 14 1012.4F
SAXON HARBOR     0200   51      CALM  /  1 1011.2F
$$

LMZ867-665-643>646-010400-
LAKE MICHIGAN

STATION/POSITION TIME  TEMP    WIND        PRES    WAVE
                       AIR SEA DIR/SP/G            HT/PER
                 (UTC) (F)     (DEG/KT/KT) (MB)    (FT/S)
CHAMBERS ISLAND  0200   62     100/  5/  9 1015.2S
N MID LAKE BUOY  0250   55 48   80/ 14/ 14 1014.9F   1
NORTHPORT PIER   0200   57     110/  5/  7 1015.6
SISTER BAY       0235   59     100/ 11/ 14   N/A
ALGOMA LAKESHORE 0217             CALM       N/A
KEWAUNEE LAKESHO 0218   53                 1014.6F
SHEBOYGAN LAKESH 0300   52     100/  2/  2 1015.3R
PORT WASHINGTON  0240   55      30/  3/  4 1015.6S
S MID LAKE BUOY  0250   58 55   90/ 12/ 14 1014.3F   1/ 4
KENOSHA   LAKESH 0300   59     110/  5/  8 1014.6R
$$

TC  - TEMPERATURE IN CELSIUS
VSB - VISIBILITY IN STATUTE MILES
WCI - WIND CHILL INDEX
HX  - HEAT INDEX





USA.gov is the U.S. government's official web portal to all federal, state and local government web resources and services.